Pagina principale
METAR-TAF:

METAR-TAF

Aeroporti :

Lawrence Municipal Airport

Lawrence, Massachusetts, Stati Uniti

latitudine: 42-42-47N, longitudine: 071-07-33W, altezza: 45 m

Osservazione

Il bollettino è stato emesso 30 minuti fa, alle 07:54 UTC
Vento 3 kt da sud-ovest
Temperature 23°C
Umidità 83%
Pressione 1014 hPa
Visibilità: 16.1 km
Cielo sereno

METAR: KLWM 160754Z AUTO 22003KT 10SM CLR 23/20 A2994 RMK AO2 SLP137 T02330200

Ora: 04:24 (08:24 UTC)


TAF: mancante

Osservazioni e previsioni meteorologiche di più di 4000 aeroporti (messaggi METAR e TAF).

Le stazioni disponibili sono rappresentate dai dischi gialli e rossi sulla carta.

Puntare il mouse per vedere il nome della stazione.

Clicca sopra per visualizzare le osservazioni e previsioni meteorologiche.

Per cambiare la mappa : fare clic sui pulsanti verdi con una croce nera per ingrandire, il pulsante verde con un trattino per diminuire, o sulla freccia verde per le mappe adiacenti.


METAR-TAF: